Location: Altamira
(10.5079°N, 66.8544°W)
Time: 09:04:32
(UTC+00:00)

CZ-4 R/B - Pass Details

Date: 08 December 2021
Orbit: 579 x 589 km, 97.7° (Epoch: 24 January)

Event Time Altitude Azimuth Distance (km) Brightness Sun altitude
Rises 22:58:47 0° 162° (SSE) 2,787 8.0 -13.0°
Reaches altitude 10° 23:00:57 10° 158° (SSE) 1,890 7.0 -13.5°
Maximum altitude 23:05:00 61° 78° (ENE) 660 4.4 -14.4°
Drops below altitude 10° 23:09:02 10° 358° (N) 1,894 6.9 -15.3°
Sets 23:11:13 0° 354° (N) 2,794 7.8 -15.8°
